Location: St. Louis
(38.6270°N, 90.1994°W)
Time: 00:37:56
(UTC-05:00)

Envisat - Visible Passes

Search period start: 26 October 2021 00:00
Search period end: 05 November 2021 00:00
Orbit: 764 x 766 km, 98.2° (Epoch: 25 October)

Date Brightness Start Highest point End Pass type
(mag) Time Alt. Az. Time Alt. Az. Time Alt. Az.
26 Oct 6.0 04:50:34 10° ENE 04:53:17 14° E 04:55:59 10° ESE visible
26 Oct 3.0 06:27:40 10° N 06:32:40 60° WNW 06:37:39 10° SSW visible
27 Oct 3.6 05:50:49 10° NNE 05:55:51 60° E 06:00:51 10° S visible
27 Oct 6.4 18:46:06 10° WSW 18:48:16 13° W 18:50:26 10° WNW visible
28 Oct 5.2 05:14:37 10° NE 05:18:50 26° E 05:23:02 10° SSE visible
28 Oct 3.6 06:53:19 10° N 06:57:52 34° WNW 07:02:23 10° SW visible
29 Oct 6.2 04:40:24 10° ENE 04:41:38 11° E 04:42:51 10° ESE visible
29 Oct 2.9 06:16:05 10° N 06:21:11 77° WNW 06:26:14 10° SSW visible
30 Oct 4.1 05:39:24 10° NNE 05:44:18 46° E 05:49:09 10° S visible
30 Oct 6.1 18:33:27 10° SW 18:36:37 17° W 18:39:48 10° NW visible
31 Oct 5.5 05:03:30 10° NE 05:07:14 20° E 05:10:55 10° SE visible
31 Oct 3.3 06:41:36 10° N 06:46:24 43° WNW 06:51:10 10° SW visible
01 Nov 3.0 06:04:32 10° NNE 06:09:39 83° ESE 06:14:44 10° SSW visible
02 Nov 4.6 05:28:03 10° NNE 05:32:43 36° E 05:37:21 10° SSE visible
02 Nov 5.9 18:21:10 10° SW 18:24:59 21° W 18:28:49 10° NW visible
03 Nov 5.9 04:52:35 10° NE 04:55:35 16° E 04:58:34 10° SE visible
03 Nov 3.1 06:29:58 10° N 06:34:55 55° WNW 06:39:52 10° SSW visible
04 Nov 3.4 05:53:03 10° NNE 05:58:07 65° E 06:03:08 10° S visible
04 Nov 6.5 18:48:53 10° WSW 18:50:34 11° W 18:52:14 10° WNW visible
